Погода Горно-Алтайск

Погода Горно-Алтайск : погода сейчас, прогноз погоды и архив. Всё, что Вы хотите узнать о погоде Горно-Алтайск!

Хотите узнать прогноз погоды Горно-Алтайск? Тогда Вам сюда: Погода Горно-Алтайск

Поиск расширенной информации на нашем сайте:

Другие новости

Новости СМИ2

Главная страница сайта

Новости сайта

03.07.2017

Напоминаем, что на нашем специализированном сайте Метеоцентр.Азия вы можете получить высокодетализированные автоматические прогнозы погоды по пунктам России, СНГ и мира в авиационном формате (включающие направление и скорость ветра, видимость, явления погоды, количество и форму облачности, нижнюю и верхнюю границу облачности).


Погода Горно-Алтайск - сегодня

Время (UTC), дата Ветер
(°,м/с) 
Видим.   Явления Облачность Т
(°С)
Тd
(°С)
f(%) Тe
(°С)
Pmin
(гПа)
dP
(гПа)
Po
(мм)
O2
(г/м3)
Тmin Tmax R s Состояние
почвы
06 16.07.17 240 (ЮЗ) 10 км  гроза, ливневой дождь  10/10 1000 м кучево-дожд. 
[Cb cap]
+19 +14.5 75 +28  1015.9  0.3  736  274           
09 16.07.17 350 (С) 10 км  {гроза, ливн. осадки}  3/3 1000 м кучево-дожд. 
[Cb calv]
+22.5 +11 48 +25  1014.5  -1  736  272           
03 17.07.17 нст () 10 км    4/0 верхняя 
[Ci fib]
+19.1 +13.9 72 +28  1010  -0.8  732  273  -10.6         
06 17.07.17 300 (СЗ) 10 км    1/0 верхняя 
[Ci fib]
+25.2 +13.7 49 +32  1008.2  -1.1  731  267           
09 17.07.17 050 (СВ) 10 км    3/3 1000 м 
[Cu med, cong]
+26.9 +14.6 47 +36  1006.8  -1.1  730  265           
03 18.07.17 нст () 10 км    5/5 1500 м 
[Cu med, cong]
+20.7 +15 70 +30  1009.8  -0.3  732  271  +12.6         
06 18.07.17 070 (В) 10 км    9/5 1000 м кучево-дожд., верхняя 
[Cb calv|Ci]
+23.1 +13.6 55 +30  1009.1  -0.4  732  269           
09 18.07.17 300 (СЗ) 10 км  {гроза, ливн. осадки}  9/8 1000 м кучево-дожд., средняя 
[Cb calv|Ac trans]
+18.3 +17 92 +32  1010.6  0.9  732  273           
06 19.07.17 180 (Ю) 10 км  {ливн. осадки}  8/6 1000 м кучево-дожд., средняя 
[Cb calv|Ac lent]
+19.5 +13.9 70 +29  1007.6  -1.5  730  272           
03 20.07.17 210 (ЮЗ) 10 км    6/4 1000 м средняя 
[Cu hum|Ac trans]
+18.7 +13.3 71 +25  1012.3  0.6  734  274  +14.1         
06 20.07.17 200 (Ю) 10 км  в посл. час ливневой дождь  6/6 1000 м кучево-дожд. 
[Cb calv]
+21.6 +14.5 64 +30  1011.9  -0.1  734  271           
09 20.07.17 нст () 10 км    8/5 1000 м кучево-дожд., средняя 
[Cb calv|Ac trans]
+23.3 +13.5 54 +30  1010.6  -1.1  733  269           
03 21.07.17 180 (Ю) 10 км    8/4 1500 м средняя, верхняя 
[Sc diur, vesp|Ac trans|Ci fib]
+18.1 +14.6 80 +28  1013.8  0.8  735  275  -13         
06 21.07.17 360 (С) 10 км    4/4 1000 м кучево-дожд. 
[Cb cap]
+23.6 +14.3 56 +32  1012.2  -0.8  734  269           
03 22.07.17 160 (Ю) 10 км    6/0 средняя, верхняя 
[Ac trans|Ci fib]
+19.7 +14.5 72 +29  1012.1  0.1  734  273  +11.5         
06 22.07.17 320 (СЗ) 10 км    6/1 1000 м кучево-дожд., средняя, верхняя 
[Cb calv|Ac trans|Ci fib]
+24.8 +14 51 +32  1010.6  -0.9  733  268           
09 22.07.17 030 (СВ) 10 км    9/6 1000 м кучево-дожд., средняя 
[Cb calv|Ac und]
+25.3 +15 53 +35  1009.7  -0.8  732  267           
06 23.07.17 нст () 10 км  гроза, ливневой дождь  10/10 300 м кучево-дожд. 
[Cb cap]
+20.9 +16.1 74 +32  1010.4  -0.5  733  271           
09 23.07.17 нст () 9000 м  {гроза, ливн. осадки}  9/9 1000 м кучево-дожд., средняя 
[Cb calv|Ac und]
+20.7 +16.3 76 +32  1010.5  0.6  733  271           
03 24.07.17 160 (Ю) 10 км    1/0 верхняя 
[Ci fib]
+20.8 +14.9 69 +30  1010.8  -0.8  733  271  +13.3         
06 24.07.17 нст () 10 км    8/4 1500 м верхняя 
[Cu hum|Ci fib]
+23.9 +14.9 57 +33  1009.9  -0.6  732  268           
09 24.07.17 030 (СВ) 10 км    1/1 1500 м 
[Cu hum]
+25.2 +15.5 55 +35  1008.6  -1.1  732  267           
03 25.07.17 190 (Ю) 10 км    6/4 1000 м кучево-дожд., средняя, верхняя 
[Cb calv|Ac trans|Ci fib]
+23.4 +16 63 +35  1003.6  -0.2  728  267  +14         
06 25.07.17 210 (ЮЗ) 10 км    8/3 1000 м кучево-дожд., средняя, верхняя 
[Cb calv|Ac trans|Ci fib]
+27.3 +16.6 52 +40  1002.4  -0.7  727  263           
09 25.07.17 310 (СЗ) 9000 м    6/0 верхняя 
[Ci fib]
+27.7 +19.8 62 +47  1002.7  -0.4  728  261           
Время (UTC), дата Ветер
(°,м/с) 
Видим.   Явления Облачность Т
(°С)
Тd
(°С)
f(%) Тe
(°С)
Pmin
(гПа)
dP
(гПа)
Po
(мм)
O2
(г/м3)
Тmin Tmax R s Состояние
почвы

Для получения пояснительной информации подведите курсор к названию столбца.

ПОГОДА Горно-Алтайск - архив

Всё, что Вы хотите узнать о погоде Горно-Алтайск - удобно и подробно!

Выберите нужную дату (начиная с 1 января 2015* года) и нажмите кнопку "Найти".
Будут отображены архивные сводки погоды по пункту Горно-Алтайск, начиная с указанной даты.


Отображать данные в формате CSV (для использования в таблицах Excel)


Внимание! Наш архив погоды предназначен исключительно для личного некоммерческого использования в познавательных целях. Если Вам необходимы официальные справки о состоянии погоды (для производственных, юридических, коммерческих и т.п. целей), обращайтесь в органы Росгидромета.

*Примечание: данная дата относится к архиву по метеостанциям СССР (Россия, СНГ, Балтия).
Архив по метеостанциям Зарубежной Европы и Азии (кроме Китая) хранится 10 дней, по другим регионам земного шара (Китай, Африка, Америка, Австралия, Океания) - 1 день.

Горно-Алтайск - район местоположения метеостанции


Название, широта, долгота, высота метеостанции:
Горно-Алтайск 52°ш. 85.9°д. 286 м над ур. моря [Российская Федерация]

Дополнительная информация

В oтличие oт бoльшинства пoгoдных сайтoв мы публикуем пoдрoбную метеoинфoрмацию в детальнoм прoфессиoнальнoм фoрмате.

Характеристики температуры и влажнoсти вoздуха измеряются на высoте 2 м в тени вдали oт зданий и деревьев.
Скoрoсть ветра измеряется на высoте 10 м (на урoвне рoста челoвека скoрoсть ветра ниже в 1.5-2 раза). Если метеoстанция нахoдится в гoрoде или в лесу, тo скoрoсть ветра занижена на 2-4 м/с пo сравнению с oткрытым местoм. Скoрoсть ветра над акватoриями крупных рек и oзёр, а также на вершинах хoлмoв на 2-5 м/с выше, чем в oбычных услoвиях.
Атмoсфернoе давление в разных тoчках местнoсти мoжет значительнo oтличаться oт давления на метеoстанции, в зависимoсти oт услoвий рельефа (при пoдъёме на 10 м давление пoнижается примернo на 1 мм рт.ст.).